Regional Weather Roundup
Issued by NWS Green Bay, WI

Home | Current Version | Previous Version | Graphics & Text | Print | Product List | Glossary Off
Versions: 1 2 3 4 5 6 7 8 9 10 11 12 13 14 15 16 17 18 19 20 21 22 23 24 25 26 27 28 29 30 31 32 33 34 35 36 37 38 39 40 41 42 43 44 45 46 47 48 49 50

000
ASUS43 KGRB 240659
RWRGRB

NORTH-CENTRAL AND NORTHEAST WISCONSIN REGIONAL WEATHER ROUNDUP
NATIONAL WEATHER SERVICE GREEN BAY WI
200 AM CDT FRI OCT 24 2014

WIZ005-009-010>012-018-019-240800-
NORTH CENTRAL WISCONSIN

CITY           SKY/WX    TMP DP  RH WIND       PRES   REMARKS
IRONWOOD       CLOUDY    46  46 100 S7        29.95S
MANITOWISH WTR NOT AVBL
ARBOR VITAE    NOT AVBL
EAGLE RIVER    NOT AVBL
LAND O LAKES   NOT AVBL
RHINELANDER    FOG       44  44 100 SW6       30.00S VSB 1/2
PHILLIPS       NOT AVBL
ANTIGO         NOT AVBL
TOMAHAWK       NOT AVBL
MERRILL        NOT AVBL
$$

WIZ013-073-240800-
NORTHEAST WISCONSIN

CITY           SKY/WX    TMP DP  RH WIND       PRES   REMARKS
IRON MOUNTAIN  CLOUDY    46  44  93 W6        29.98S
MARINETTE      CLOUDY    48  45  87 CALM      30.00S
$$

WIZ017-030-035>037-045-240800-
CENTRAL WISCONSIN

CITY           SKY/WX    TMP DP  RH WIND       PRES   REMARKS
MEDFORD        NOT AVBL
WAUSAU         FOG       46  46 100 SW3       30.00S VSB 1/2
MOSINEE        NOT AVBL
MARSHFIELD     FOG       47  46  97 W6        30.01S VSB 3/4
WISC RAPIDS    FOG       47  46  97 CALM      30.04R VSB 1
STEVENS POINT  NOT AVBL
WAUPACA        NOT AVBL
SHAWANO        NOT AVBL
CLINTONVILLE   NOT AVBL
$$

WIZ038-039-048-051-240800-
FOX VALLEY

CITY           SKY/WX    TMP DP  RH WIND       PRES   REMARKS
NWS GREEN BAY  CLOUDY    48  47  96 W5        30.02S FOG
APPLETON       NOT AVBL
OSHKOSH        CLOUDY    48  47  96 W3        30.02R FOG
FOND DU LAC    CLOUDY    49  46  90 W7        30.03R FOG
$$

WIZ022-050-052-240800-
EAST CENTRAL WISCONSIN

CITY           SKY/WX    TMP DP  RH WIND       PRES   REMARKS
STURGEON BAY   CLOUDY    48  46  93 W5        30.02S
MANITOWOC      NOT AVBL
SHEBOYGAN      CLOUDY    50  48  93 W3        30.02S FOG
$$

LMZ563-521-522-541>543-240800-
LAKESHORE

STATION/POSITION TIME  TEMP    WIND        PRES    VSBY  WAVE
                       AIR SEA DIR/SP/G                  HT/PER
                 (UTC) (F)     (DEG/KT/KT) (MB)    (MI)  (FT/S)
SHEBOYGAN LKSHOR 0600   51 51  210/  4/  5 1017.1R
KEWAUNEE LKSHORE 0600   50     220/  2/  2 1015.3F
NORTHPORT PIER   0600   49     230/  2/  4 1015.9F
N MID LAKE BUOY  0600   51 51  210/ 14/ 16 1016.2F         3/ 5
SISTER BAY LKSHO 0600          170/  2/  5   N/A
CHAMBERS ISLAND  0600   49     200/  5/ 10 1016.3S
MENOMINEE LKSHOR 0600   49     240/  5/  8 1016.7S
$$



USA.gov is the U.S. government's official web portal to all federal, state and local government web resources and services.